Airfield :
LOGIN :

Register | Disclaimer

   EN    FR    IT 

 










Legend :    VFR   Marginal VFR   IFR   Intensive IFR   Very Intensive IFR
Visi :
Ceiling :
>= 8 km
>= 3000ft
5 to 8 km
1000 to 3000 ft
1500m to 5 km
500 to 1000 ft
800 to 1500m
200 to 500 ft
< 800m
< 200 ft
Symbols :   Thunderstorms  Fog  Heavy snow  Heavy precipitations  Wind > 20 kt
SIGMETs :     Misc.  Thunderstorms  Icing  Turbulence  Mountain Waves  Volcanic Ashes







- Airport Elevation : 755 ft
- IATA code : DRS


EDDC - Dresden Klotzsche

CURRENT METAR :
  • 250750Z 15006KT 110V200 CAVOK 27/13 Q1023 NOSIG

EXPIRED METARs :
  • 250720Z 15008KT 120V200 CAVOK 26/13 Q1023 NOSIG
  • 250650Z 15007KT 100V180 CAVOK 25/13 Q1023 NOSIG
  • 250620Z 14007KT 110V200 CAVOK 24/14 Q1023 NOSIG
  • 250550Z 14007KT CAVOK 23/14 Q1023 NOSIG
  • 250520Z 15006KT 120V180 CAVOK 22/14 Q1023 NOSIG

TAF TAF EDDC
Valid from the 25 at 06:00 until the 26 at 06:00 UTC


250500Z 2506/2606 14007KT CAVOK
BECMG 2604/2606 20005KT
No reported NOTAMs for that airfield.



MET'MAP, your aeronautical weather chart ! - Copyright ORBIFLY December 2007 - Disclaimer

ORBIFLY MET'MAP TEAM :

Programming & Development : Alexandra Zaïnal
Concept & Development : Baudouin d'Aumeries
Co-Development & Prog : Marc-Olivier Méhu
Technical & hardware support : Manuel Goepfert

Contact : metmap@orbifly.com




SOURCES & CREDITS :

   NOAA